[[{"header":{"parameterUnit":"m.s-1","parameterCategory":1,"la1":30.2991,"la2":30.254,"lo1":-89.0895,"lo2":-89.0444,"dy":0.0017,"dx":0.0017,"nx":28,"ny":28,"refTime":"2023-10-22T09:00:00:Z","depth":0,"parameterNumber":2,"parameterNumberName":"U-component_of_WINDS"},"data":[0,0,0,0,0,0,0,0,0,0,0,0,0,0,0,0,0,0,0,0,0,0,0,0,0,0,0,0,0,0,0,0,0,0,0,0,0,0,0,0,0,0,0,0,0,0,0,0,0,0,0,0,0,0,0,0,0,0,-3.4373,-3.4374,0,-3.4458,-3.4459,-3.446,-3.443,-3.4428,-3.4427,-3.4425,-3.4511,-3.4515,-3.4519,0,0,0,0,0,0,0,0,0,0,0,0,0,-3.4185,-3.4189,-3.4373,-3.4374,-3.4375,-3.4458,-3.4459,-3.446,-3.4431,-3.4428,-3.4426,-3.4424,-3.451,-3.4515,-3.452,0,0,0,0,0,0,0,0,0,0,0,0,0,-3.4268,-3.419,-3.4372,-3.437,-3.4371,-3.4458,-3.4459,-3.4461,-3.4431,-3.4428,-3.4425,-3.4423,-3.4508,-3.4514,-3.452,-3.4615,0,0,-3.4539,-3.4542,0,0,0,0,0,0,0,0,-3.4263,-3.4275,-3.4369,-3.437,-3.4371,-3.4431,-3.4425,-3.4512,-3.4432,-3.4408,-3.4425,-3.4421,-3.4487,-3.4494,-3.4517,-3.4619,-3.4622,-3.454,-3.4543,-3.4546,-3.4548,0,0,0,0,0,0,0,-3.4258,-3.4271,-3.4406,-3.4371,-3.4372,-3.4365,-3.4374,-3.4441,-3.4462,-3.441,-3.4408,-3.4419,-3.4487,-3.4511,-3.4518,-3.4624,-3.4539,-3.4545,-3.4549,-3.4551,-3.4809,-3.4812,0,0,0,0,0,0,-3.4251,-3.4267,-3.4404,-3.4409,-3.4309,-3.4371,-3.438,-3.4414,-3.4461,-3.4466,-3.4421,-3.4417,-3.4502,-3.4511,-3.4521,-3.4635,-3.4546,-3.4551,-3.4555,-3.4806,-3.481,-3.4813,0,0,0,0,0,0,-3.4248,-3.4264,-3.44,-3.4337,-3.4354,-3.4377,-3.4415,-3.4418,-3.4442,-3.447,-3.4473,-3.4442,-3.45,-3.4513,-3.4592,-3.4637,-3.4554,-3.456,-3.4802,-3.4807,-3.4812,-3.4862,0,0,0,0,0,0,-3.4242,-3.4263,-3.4298,-3.4338,-3.4358,-3.4469,-3.4418,-3.4421,-3.4452,-3.4448,-3.449,-3.4494,-3.4499,-3.4583,-3.4598,-3.4644,-3.4565,-3.4798,-3.4804,-3.481,-3.4857,-3.4868,-3.4878,0,0,0,0,0,-3.4236,-3.4308,-3.43,-3.4317,-3.4402,-3.4472,-3.4483,-3.4486,-3.4456,-3.4492,-3.4511,-3.4493,-3.4631,-3.4591,-3.4608,-3.4657,-3.4795,-3.4803,-3.481,-3.4852,-3.4866,-3.4878,0,0,0,0,0,0,-3.4272,-3.4313,-3.4304,-3.4393,-3.4429,-3.4466,-3.4511,-3.4501,-3.4546,-3.454,-3.4543,-3.4553,-3.4635,-3.4654,-3.461,-3.4752,-3.4709,-3.4719,-3.4735,-3.4749,-3.4759,-3.4752,-3.457,0,0,0,0,0,-3.429,-3.4343,-3.4377,-3.4451,-3.447,-3.4488,-3.4518,-3.4519,-3.4556,-3.4571,-3.4595,-3.4633,-3.4684,-3.4718,-3.4767,-3.4861,-3.487,-3.4903,-3.4914,-3.4923,-3.4931,-3.4983,-3.4998,-3.4837,-3.4837,-3.4837,0,0,-3.4328,-3.4358,-3.439,-3.4459,-3.4487,-3.4542,-3.4501,-3.456,-3.4601,-3.458,-3.4656,-3.4676,-3.4718,-3.4805,-3.4844,-3.4823,-3.4978,-3.4932,-3.4938,-3.4942,-3.4992,-3.5007,-3.502,-3.4842,-3.4841,-3.484,0,0,-3.4424,-3.4453,-3.4518,-3.4548,-3.4591,-3.4604,-3.462,-3.466,-3.4672,-3.4749,-3.4735,-3.4785,-3.4874,-3.4904,-3.4931,-3.5044,-3.503,-3.5061,-3.5116,-3.5166,-3.5179,-3.519,-3.5229,-3.5244,-3.507,-3.507,-3.507,0,-3.4465,-3.4547,-3.4552,-3.4614,-3.4645,-3.4631,-3.4697,-3.4726,-3.4783,-3.4805,-3.4782,-3.4895,-3.4922,-3.5016,-3.5044,-3.5067,-3.5085,-3.5054,-3.5177,-3.5188,-3.5198,-3.5236,-3.5251,-3.5073,-3.5073,-3.5072,-3.5072,0,-3.4596,-3.4653,-3.4701,-3.4757,-3.4794,-3.4858,-3.4873,-3.4911,-3.4909,-3.4924,-3.5004,-3.5037,-3.5093,-3.5116,-3.5115,-3.5211,-3.5197,-3.5175,-3.5131,-3.5217,-3.5252,-3.5267,-3.5078,-3.5077,-3.5076,-3.5075,0,0,-3.4712,-3.4775,-3.4792,-3.4818,-3.4867,-3.4912,-3.4976,-3.5032,-3.5063,-3.5105,-3.5158,-3.5236,-3.5218,-3.5249,-3.5251,-3.5296,-3.5383,-3.5269,-3.527,-3.5288,-3.5491,-3.5505,-3.5522,-3.5376,-3.5378,-3.5381,-3.5487,0,-3.4812,-3.4923,-3.4932,-3.5033,-3.5086,-3.5076,-3.5132,-3.5169,-3.5186,-3.5234,-3.5253,-3.5308,-3.5279,-3.5298,-3.5342,-3.5363,-3.5424,-3.5356,-3.5424,-3.5427,-3.5411,-3.554,-3.5555,-3.5653,-3.5501,-3.5504,-3.5505,0,-3.4941,-3.4988,-3.5094,-3.5138,-3.5161,-3.5211,-3.5263,-3.531,-3.5353,-3.5362,-3.5399,-3.5396,-3.5463,-3.542,-3.5512,-3.5466,-3.5496,-3.5511,-3.5515,-3.5519,-3.5469,-3.5546,-3.5685,-3.5699,-3.5527,-3.5526,-3.5524,0,-3.5014,-3.5104,-3.5179,-3.5203,-3.5256,-3.5291,-3.5315,-3.5355,-3.5389,-3.5436,-3.5458,-3.5512,-3.5541,-3.5584,-3.5596,-3.5564,-3.5688,-3.5646,-3.5697,-3.5697,-3.5721,-3.5719,-3.5864,-3.5745,-3.5744,-3.5744,-3.5744,0,-3.5122,-3.5187,-3.5213,-3.5259,-3.5333,-3.5343,-3.5416,-3.5438,-3.5474,-3.5525,-3.5521,-3.5568,-3.5583,-3.5634,-3.5645,-3.572,-3.5734,-3.5743,-3.5744,-3.5742,-3.574,-3.5758,-3.5751,-3.5748,-3.5747,-3.5746,-3.5746,0,-3.5214,-3.5234,-3.5316,-3.5361,-3.5374,-3.5426,-3.5464,-3.5509,-3.5527,-3.5592,-3.5608,-3.5636,-3.5696,-3.5714,-3.5786,-3.5793,-3.588,-3.5877,-3.5865,-3.5865,-3.5914,-3.5909,-3.6075,-3.6097,-3.5965,-3.5966,-3.5967,0,-3.528,-3.533,-3.5382,-3.5416,-3.5441,-3.5496,-3.5531,-3.5545,-3.5582,-3.5636,-3.5675,-3.5734,-3.5782,-3.5879,-3.5906,-3.5962,-3.5958,-3.6013,-3.5966,-3.5962,-3.5957,-3.5952,-3.5957,-3.602,-3.6021,-3.6023,-3.6024,0,-3.5395,-3.5404,-3.5454,-3.5509,-3.5552,-3.5596,-3.5638,-3.5666,-3.5687,-3.5728,-3.579,-3.5828,-3.5903,-3.5962,-3.6019,-3.6044,-3.6037,-3.6039,-3.6053,-3.6049,-3.604,-3.6044,-3.5887,-3.6034,-3.6033,-3.6032,-3.6032,-3.6031,-3.5475,-3.552,-3.5563,-3.562,-3.5654,-3.5695,-3.5739,-3.5764,-3.5816,-3.5878,-3.5884,-3.595,-3.5994,-3.6071,-3.61,-3.6152,-3.6136,-3.6158,-3.6163,-3.6167,-3.617,-3.6035,-3.6163,-3.6163,-3.6163,-3.6163,-3.6162,0,-3.5588,-3.5617,-3.567,-3.573,-3.5775,-3.5767,-3.5815,-3.5853,-3.5912,-3.5954,-3.6002,-3.6074,-3.6132,-3.6166,-3.6224,-3.626,-3.6259,-3.6275,-3.6271,-3.6277,-3.6182,-3.6162,-3.6275,-3.6275,-3.6275,-3.6275,-3.6275,-3.6275,-3.5652,-3.5727,-3.5741,-3.5833,-3.5862,-3.5927,-3.5955,-3.5993,-3.6026,-3.6107,-3.6155,-3.6177,-3.6216,-3.6278,-3.6332,-3.634,-3.6361,-3.6379,-3.6385,-3.6295,-3.6283,-3.6272,-3.6254,-3.6384,-3.6384,-3.6476,-3.6477,-3.6477]},{"header":{"parameterUnit":"m.s-1","parameterCategory":1,"la1":30.2991,"la2":30.254,"lo1":-89.0895,"lo2":-89.0444,"dy":0.0017,"dx":0.0017,"nx":28,"ny":28,"refTime":"2023-10-22T09:00:00:Z","depth":0,"parameterNumber":3,"parameterNumberName":"V-component_of_WINDS"},"data":[0,0,0,0,0,0,0,0,0,0,0,0,0,0,0,0,0,0,0,0,0,0,0,0,0,0,0,0,0,0,0,0,0,0,0,0,0,0,0,0,0,0,0,0,0,0,0,0,0,0,0,0,0,0,0,0,0,0,1.4805,1.4805,0,1.4869,1.487,1.4871,1.4915,1.4915,1.4915,1.4916,1.4979,1.498,1.4982,0,0,0,0,0,0,0,0,0,0,0,0,0,1.4719,1.472,1.4805,1.4805,1.4806,1.4869,1.487,1.4871,1.4915,1.4915,1.4915,1.4916,1.4979,1.498,1.4982,0,0,0,0,0,0,0,0,0,0,0,0,0,1.4767,1.4721,1.4804,1.4836,1.4839,1.4869,1.487,1.4871,1.4914,1.4915,1.4915,1.4916,1.4978,1.498,1.4982,1.4985,0,0,1.4989,1.4989,0,0,0,0,0,0,0,0,1.4764,1.477,1.483,1.4834,1.4838,1.4884,1.4863,1.4909,1.4914,1.4886,1.4916,1.4916,1.4947,1.4952,1.4963,1.4988,1.4991,1.4989,1.499,1.4991,1.4991,0,0,0,0,0,0,0,1.4761,1.4767,1.483,1.4831,1.4836,1.4846,1.4854,1.4872,1.4913,1.4888,1.4892,1.4899,1.4949,1.4961,1.4964,1.4992,1.4989,1.4991,1.4992,1.4993,1.5026,1.5025,0,0,0,0,0,0,1.4753,1.4764,1.4828,1.4832,1.4801,1.4847,1.4856,1.4869,1.4913,1.492,1.4898,1.4901,1.4957,1.4962,1.4967,1.4975,1.4991,1.4993,1.4994,1.5026,1.5025,1.5025,0,0,0,0,0,0,1.4751,1.4758,1.4825,1.4799,1.4809,1.4848,1.4863,1.487,1.4881,1.492,1.4928,1.4903,1.4957,1.4964,1.4981,1.4977,1.4994,1.4996,1.5026,1.5026,1.5025,1.4989,0,0,0,0,0,0,1.4748,1.4757,1.4758,1.4799,1.481,1.4838,1.4863,1.4871,1.4885,1.4889,1.4926,1.4933,1.4958,1.4978,1.4983,1.498,1.4997,1.5027,1.5026,1.5025,1.4991,1.4987,1.4984,0,0,0,0,0,1.4745,1.4745,1.4758,1.4766,1.4813,1.4838,1.4844,1.4874,1.4885,1.4886,1.4912,1.4932,1.4977,1.4979,1.4985,1.4983,1.5027,1.5026,1.5025,1.4992,1.4988,1.4984,0,0,0,0,0,0,1.4701,1.475,1.4766,1.4779,1.4804,1.4845,1.4849,1.4868,1.489,1.4893,1.4928,1.4936,1.495,1.4969,1.497,1.499,1.5005,1.5005,1.4977,1.4973,1.497,1.4965,1.4999,0,0,0,0,0,1.4693,1.471,1.4752,1.476,1.4772,1.4808,1.482,1.4841,1.4868,1.4879,1.4906,1.4931,1.4951,1.4963,1.4984,1.4994,1.5003,1.4996,1.4993,1.499,1.499,1.4998,1.4996,1.5022,1.5022,1.5022,0,0,1.4676,1.4706,1.4714,1.4752,1.4774,1.4791,1.4816,1.4833,1.4846,1.4881,1.4899,1.492,1.4951,1.4965,1.4972,1.4981,1.4985,1.4989,1.4987,1.4988,1.4997,1.4995,1.4992,1.5022,1.5022,1.5022,0,0,1.4655,1.4678,1.4688,1.471,1.4744,1.4768,1.4771,1.481,1.4825,1.4844,1.4872,1.4888,1.4922,1.4943,1.4958,1.4948,1.4967,1.4953,1.4936,1.4944,1.4942,1.494,1.4937,1.4936,1.4953,1.4953,1.4953,0,1.4629,1.4656,1.469,1.4705,1.4722,1.4757,1.4767,1.4786,1.4825,1.4835,1.4844,1.4889,1.4912,1.4932,1.493,1.4941,1.4945,1.4949,1.494,1.4938,1.4937,1.4935,1.4934,1.4951,1.4951,1.4952,1.4952,0,1.4624,1.4642,1.4646,1.4684,1.4701,1.4713,1.4749,1.4762,1.4782,1.4806,1.4826,1.4856,1.4884,1.489,1.4909,1.4914,1.4918,1.4933,1.4948,1.4932,1.4931,1.493,1.4949,1.4949,1.495,1.495,0,0,1.4574,1.4632,1.4633,1.4652,1.4693,1.4707,1.4722,1.4751,1.4762,1.4788,1.4802,1.4831,1.4846,1.4863,1.4885,1.4892,1.4884,1.4907,1.4908,1.4902,1.4892,1.488,1.4878,1.4897,1.4897,1.4897,1.4889,0,1.4558,1.4587,1.462,1.4637,1.4656,1.469,1.4704,1.473,1.4754,1.4772,1.4798,1.4819,1.4836,1.4847,1.4856,1.4883,1.4882,1.4884,1.491,1.4911,1.4901,1.4877,1.4864,1.4855,1.4889,1.4888,1.4888,0,1.4543,1.457,1.459,1.4631,1.464,1.4651,1.4681,1.4699,1.4731,1.4747,1.4768,1.4793,1.4811,1.4825,1.4851,1.4852,1.4865,1.488,1.488,1.4883,1.4898,1.4879,1.4853,1.4851,1.4888,1.4888,1.4888,0,1.4506,1.4546,1.4564,1.4578,1.4627,1.4634,1.4655,1.4687,1.4703,1.473,1.4741,1.4768,1.4783,1.4804,1.4836,1.4843,1.4859,1.4875,1.4873,1.4873,1.4874,1.4873,1.4849,1.4883,1.4883,1.4883,1.4883,0,1.4485,1.4496,1.4548,1.4558,1.4572,1.4609,1.4622,1.4646,1.4675,1.4691,1.4723,1.4737,1.4779,1.4799,1.4824,1.4842,1.4848,1.4862,1.4869,1.4859,1.4858,1.4868,1.4869,1.4883,1.4883,1.4883,1.4883,0,1.4444,1.4479,1.4501,1.4546,1.4558,1.4566,1.4605,1.4617,1.4644,1.4664,1.4671,1.4712,1.4737,1.4772,1.4807,1.4824,1.4839,1.4849,1.4828,1.4832,1.4828,1.4828,1.4809,1.4809,1.4842,1.4842,1.4842,0,1.4428,1.4438,1.4485,1.4499,1.4519,1.454,1.4558,1.4595,1.4612,1.465,1.4658,1.4686,1.471,1.4749,1.4782,1.4809,1.482,1.4812,1.4825,1.4816,1.4821,1.482,1.4821,1.4808,1.4808,1.4807,1.4807,0,1.4396,1.4414,1.4438,1.4468,1.4488,1.4514,1.4541,1.455,1.4594,1.4611,1.4638,1.4657,1.4694,1.4722,1.4755,1.4776,1.4799,1.4803,1.4804,1.4794,1.4782,1.4789,1.4819,1.4803,1.4804,1.4804,1.4804,1.4804,1.4368,1.4379,1.4414,1.444,1.4465,1.449,1.4504,1.4534,1.4557,1.4591,1.4612,1.4638,1.4672,1.4718,1.4739,1.476,1.4769,1.4771,1.4771,1.4771,1.4768,1.4779,1.4766,1.4767,1.4767,1.4767,1.4767,0,1.4338,1.4363,1.4387,1.4425,1.4446,1.4467,1.4499,1.4515,1.4538,1.4568,1.4592,1.4623,1.4651,1.4687,1.4718,1.4728,1.4739,1.4734,1.4734,1.4739,1.4758,1.4754,1.4725,1.4725,1.4725,1.4725,1.4725,1.4725,1.4325,1.4345,1.4367,1.44,1.4425,1.4452,1.4468,1.4492,1.4517,1.4551,1.4575,1.4599,1.4631,1.4665,1.4692,1.4702,1.4711,1.4703,1.4716,1.4733,1.4737,1.4741,1.4737,1.4705,1.4705,1.4696,1.4696,1.4696]}]]